CW4120 Weather Reports


Display with metric or nautical units.
time (UTC)temp
F
wind
direction
speed
MPH
gust
MPH
rain 1hr
in
rain 24hr
in
rain mn
in
humidity
%
barometer
mb
20260507140533 54 157 0.0 2.0 0.00 0.14 0.07 71 1013.1
20260507140033 54 135 1.0 3.0 0.00 0.15 0.07 69 1013.1
20260507135533 54 169 1.0 3.0 0.00 0.16 0.07 70 1013.1
20260507135034 54 10 0.0 3.0 0.00 0.17 0.07 71 1013.1
20260507134534 54 268 1.0 3.0 0.00 0.18 0.07 72 1013.2
20260507134033 54 14 1.0 3.0 0.00 0.20 0.07 75 1013.2
20260507133534 54 47 0.0 2.0 0.00 0.21 0.07 75 1013.3
20260507131533 54 292 0.0 1.0 0.00 0.26 0.07 79 1013.1
20260507131033 54 308 0.0 3.0 0.00 0.27 0.07 77 1013.0
20260507130533 54 293 1.0 3.0 0.00 0.29 0.07 77 1013.1
20260507130033 54 307 1.0 2.0 0.00 0.30 0.07 78 1013.0
20260507125034 54 114 0.0 2.0 0.00 0.30 0.07 80 1013.1
20260507124533 54 147 1.0 3.0 0.00 0.30 0.07 78 1013.1
20260507124033 54 0 1.0 3.0 0.00 0.30 0.07 78 1012.9
20260507123533 54 322 0.0 2.0 0.00 0.30 0.07 77 1012.9
20260507122533 54 332 1.0 3.0 0.00 0.31 0.07 75 1013.1
20260507122033 54 41 1.0 3.0 0.00 0.31 0.07 75 1013.1
20260507121533 54 336 0.0 6.0 0.00 0.31 0.07 75 1013.1
20260507121033 54 14 0.0 7.0 0.00 0.32 0.07 77 1013.1
20260507120534 54 75 1.0 7.0 0.00 0.32 0.07 76 1013.0
20260507120033 54 11 1.0 7.0 0.00 0.32 0.07 77 1012.9
20260507115533 54 292 1.0 3.0 0.00 0.32 0.07 78 1013.1
20260507115034 54 292 1.0 3.0 0.00 0.32 0.07 80 1013.0
20260507114533 54 254 0.0 2.0 0.00 0.32 0.07 80 1012.8
20260507114033 54 260 0.0 2.0 0.00 0.32 0.07 79 1012.7
20260507113533 54 248 0.0 2.0 0.00 0.32 0.07 80 1012.5
20260507113033 54 314 1.0 2.0 0.00 0.32 0.07 79 1012.5
20260507112034 54 345 0.0 3.0 0.00 0.32 0.07 80 1012.5
20260507111033 54 88 0.0 2.0 0.00 0.32 0.07 82 1012.5
20260507110533 54 242 0.0 2.0 0.00 0.32 0.07 82 1012.5
20260507105533 54 352 0.0 3.0 0.00 0.32 0.07 84 1012.4
20260507105033 54 125 0.0 1.0 0.00 0.32 0.07 84 1012.5
20260507104533 54 101 0.0 1.0 0.00 0.32 0.07 85 1012.3
20260507104033 54 39 0.0 1.0 0.00 0.32 0.07 85 1012.2
20260507103533 54 308 0.0 2.0 0.00 0.32 0.07 86 1012.4
20260507103033 54 310 0.0 3.0 0.00 0.32 0.07 84 1012.4
20260507102534 54 0 0.0 3.0 0.00 0.32 0.07 83 1012.3
20260507102033 54 305 0.0 2.0 0.00 0.32 0.07 85 1012.1
20260507101533 54 296 0.0 2.0 0.00 0.32 0.07 84 1012.1
20260507101033 54 54 0.0 2.0 0.00 0.32 0.07 84 1011.9
20260507100533 54 347 0.0 5.0 0.00 0.32 0.07 84 1011.9
20260507100033 54 357 1.0 5.0 0.00 0.32 0.07 85 1012.0
20260507095033 54 21 1.0 3.0 0.00 0.32 0.07 89 1011.7
20260507094533 54 25 1.0 3.0 0.00 0.32 0.07 88 1012.0
20260507093534 54 171 0.0 3.0 0.00 0.32 0.07 91 1012.0
20260507093033 54 171 0.0 3.0 0.00 0.32 0.07 91 1011.9
20260507092533 54 109 0.0 1.0 0.00 0.32 0.07 91 1011.8
20260507092033 54 109 0.0 1.0 0.00 0.32 0.07 91 1011.7
20260507091533 54 109 0.0 1.0 0.00 0.32 0.07 91 1011.4
20260507091033 54 80 0.0 2.0 0.00 0.32 0.07 91 1011.5
20260507090534 54 39 0.0 2.0 0.00 0.32 0.07 91 1011.6
20260507090033 54 46 0.0 1.0 0.00 0.32 0.07 91 1011.7
20260507085533 54 46 0.0 0.0 0.00 0.32 0.07 91 1011.6
20260507085033 54 46 0.0 0.0 0.00 0.32 0.07 92 1011.6
20260507084533 54 46 0.0 1.0 0.00 0.32 0.07 92 1011.6
20260507084033 54 46 0.0 1.0 0.00 0.32 0.07 92 1011.5
20260507083533 54 46 0.0 1.0 0.01 0.32 0.07 91 1011.3
20260507083032 54 46 0.0 2.0 0.01 0.32 0.07 91 1011.5
20260507082534 54 46 0.0 3.0 0.01 0.32 0.07 91 1011.7
20260507082033 54 46 1.0 3.0 0.01 0.32 0.07 92 1011.6
20260507081533 54 304 0.0 1.0 0.01 0.32 0.07 92 1011.4
20260507081033 54 304 0.0 2.0 0.01 0.32 0.07 91 1011.4
20260507080534 54 304 0.0 2.0 0.01 0.32 0.07 90 1011.2
20260507080033 54 304 0.0 3.0 0.01 0.32 0.07 90 1010.9
20260507075533 54 323 0.0 6.0 0.01 0.32 0.07 90 1011.0
20260507075033 54 47 1.0 6.0 0.01 0.32 0.07 91 1010.9
20260507074033 54 9 0.0 2.0 0.01 0.32 0.07 90 1011.1
20260507072033 54 325 0.0 2.0 0.00 0.31 0.06 92 1010.7
20260507070534 55 4 0.0 2.0 0.00 0.31 0.06 92 1010.8
20260507065034 55 5 1.0 2.0 0.00 0.31 0.06 93 1010.9
20260507064533 55 6 1.0 2.0 0.00 0.31 0.06 93 1010.9
20260507064033 55 34 0.0 1.0 0.00 0.31 0.06 93 1010.8
20260507063034 55 77 0.0 3.0 0.01 0.31 0.06 93 1010.7
20260507062533 55 256 0.0 3.0 0.01 0.31 0.06 93 1010.9
20260507062034 55 318 0.0 3.0 0.01 0.31 0.06 93 1011.0
20260507061533 55 298 1.0 3.0 0.01 0.31 0.06 93 1011.1
20260507061033 55 312 2.0 3.0 0.01 0.31 0.06 93 1010.9
20260507060533 55 7 0.0 3.0 0.01 0.31 0.06 93 1010.7
20260507060033 56 8 1.0 3.0 0.01 0.31 0.06 93 1010.8
20260507055534 56 289 1.0 3.0 0.01 0.31 0.06 93 1010.7
20260507055034 56 7 1.0 3.0 0.01 0.31 0.06 93 1010.7
20260507054533 56 249 1.0 3.0 0.02 0.31 0.06 93 1010.7
20260507054034 56 225 1.0 3.0 0.02 0.31 0.06 92 1010.8
20260507053534 57 156 0.0 3.0 0.03 0.31 0.06 93 1011.1
20260507052033 57 106 0.0 2.0 0.05 0.30 0.05 93 1010.8
20260507051534 57 117 1.0 2.0 0.05 0.30 0.05 92 1011.0
20260507051033 57 116 1.0 3.0 0.05 0.30 0.05 92 1010.5
20260507050534 58 86 2.0 3.0 0.05 0.30 0.05 92 1010.7
20260507050034 58 272 1.0 2.0 0.05 0.30 0.05 92 1010.9
20260507045534 58 332 1.0 2.0 0.05 0.30 0.05 91 1011.2
20260507045033 58 352 0.0 5.0 0.05 0.30 0.05 91 1011.1
20260507044533 58 352 0.0 5.0 0.04 0.29 0.04 90 1010.9
20260507044033 59 76 1.0 3.0 0.04 0.29 0.04 89 1010.8
20260507043534 59 198 1.0 3.0 0.03 0.28 0.03 88 1011.5
20260507043034 60 327 1.0 3.0 0.03 0.28 0.03 87 1011.1
20260507042534 60 89 0.0 2.0 0.01 0.26 0.01 86 1010.8
20260507042034 60 352 0.0 2.0 0.00 0.25 0.00 85 1011.3
20260507041034 61 254 0.0 2.0 0.00 0.25 0.00 83 1011.0
20260507040533 61 254 1.0 2.0 0.00 0.25 0.00 83 1010.9
20260507040033 61 242 0.0 3.0 0.00 0.25 0.00 83 1010.8
20260507035533 61 242 1.0 3.0 0.00 0.25 0.25 83 1010.8
20260507035034 61 339 1.0 8.0 0.00 0.25 0.25 82 1010.8
20260507034533 61 299 2.0 8.0 0.00 0.25 0.25 81 1010.8
20260507033534 62 316 2.0 5.0 0.00 0.25 0.25 79 1010.8
20260507033033 63 289 2.0 5.0 0.00 0.25 0.25 78 1010.8
20260507032533 63 355 2.0 3.0 0.00 0.25 0.25 78 1010.8
20260507032034 63 308 1.0 3.0 0.00 0.25 0.25 79 1010.8
20260507031533 63 323 1.0 3.0 0.00 0.25 0.25 78 1010.7
20260507031034 63 308 2.0 3.0 0.00 0.25 0.25 78 1010.5
20260507030533 63 228 1.0 3.0 0.00 0.25 0.25 80 1010.5
20260507030034 64 237 2.0 5.0 0.00 0.25 0.25 80 1010.1
20260507025533 64 326 1.0 8.0 0.00 0.25 0.25 81 1009.8
20260507025033 64 304 1.0 8.0 0.00 0.25 0.25 82 1009.9
20260507024534 65 295 2.0 8.0 0.00 0.25 0.25 82 1010.2
20260507024034 65 300 2.0 7.0 0.00 0.25 0.25 84 1010.2
20260507023533 65 285 2.0 7.0 0.00 0.25 0.25 85 1010.1
20260507023034 65 338 3.0 5.0 0.00 0.25 0.25 85 1009.9
20260507022533 65 298 1.0 3.0 0.00 0.25 0.25 86 1009.9
20260507022033 65 325 1.0 3.0 0.00 0.25 0.25 86 1009.8
20260507021033 66 300 0.0 2.0 0.00 0.25 0.25 87 1009.4
20260507020534 66 299 1.0 3.0 0.00 0.25 0.25 88 1009.6
20260507015533 66 249 0.0 3.0 0.00 0.25 0.25 90 1009.7
20260507015033 66 229 1.0 2.0 0.00 0.25 0.25 90 1009.7
20260507014533 66 107 0.0 2.0 0.00 0.25 0.25 90 1009.6
20260507014033 66 107 1.0 2.0 0.00 0.25 0.25 91 1009.6
20260507013533 66 283 0.0 2.0 0.00 0.25 0.25 90 1009.5
20260507013034 66 15 1.0 2.0 0.00 0.25 0.25 90 1009.3
20260507012533 66 242 1.0 2.0 0.00 0.25 0.25 91 1009.7
20260507012034 66 240 0.0 1.0 0.00 0.25 0.25 91 1009.9
20260507011533 66 240 0.0 1.0 0.00 0.25 0.25 90 1010.0
20260507010533 66 240 0.0 1.0 0.00 0.25 0.25 90 1009.8
20260507005534 66 240 0.0 0.0 0.00 0.25 0.25 90 1009.8
20260507005033 66 240 0.0 0.0 0.00 0.25 0.25 90 1009.5
20260507004534 66 240 0.0 0.0 0.00 0.25 0.25 89 1009.6
20260507004033 66 240 0.0 1.0 0.00 0.25 0.25 89 1009.5
20260507003533 66 240 0.0 1.0 0.00 0.25 0.25 89 1009.3
20260507003033 66 317 0.0 0.0 0.00 0.25 0.25 89 1009.6
20260507002533 67 317 0.0 0.0 0.00 0.25 0.25 88 1009.3
20260507002033 67 317 0.0 0.0 0.00 0.25 0.25 88 1009.4
20260507001534 67 317 0.0 0.0 0.00 0.25 0.25 87 1009.3
20260507000033 68 126 0.0 1.0 0.00 0.25 0.25 86 1009.0
20260506235534 68 126 0.0 0.0 0.00 0.25 0.25 85 1009.1
20260506235033 68 126 0.0 1.0 0.00 0.25 0.25 85 1009.1
20260506234534 68 126 0.0 1.0 0.00 0.25 0.25 84 1009.1
20260506234033 68 0 0.0 1.0 0.00 0.25 0.25 84 1008.9
20260506233033 68 310 0.0 3.0 0.00 0.25 0.25 84 1008.6
20260506232533 69 174 0.0 3.0 0.00 0.25 0.25 84 1008.6
20260506232033 69 176 1.0 3.0 0.00 0.25 0.25 83 1008.5
20260506231034 69 203 1.0 2.0 0.00 0.25 0.25 83 1008.5
20260506230533 69 190 0.0 3.0 0.00 0.25 0.25 84 1008.4
20260506230034 69 190 0.0 8.0 0.00 0.25 0.25 84 1008.6
20260506225533 69 181 1.0 8.0 0.00 0.25 0.25 83 1008.5
20260506224034 69 155 2.0 3.0 0.00 0.25 0.25 82 1008.4
20260506223533 69 233 1.0 8.0 0.00 0.25 0.25 82 1008.3
20260506222533 69 186 2.0 10.0 0.00 0.25 0.25 82 1008.4
20260506222033 69 214 6.0 10.0 0.00 0.25 0.25 82 1008.3
20260506221534 69 205 3.0 9.0 0.00 0.25 0.25 83 1008.3
20260506221034 69 195 2.0 8.0 0.00 0.25 0.25 82 1008.3
20260506220533 69 279 3.0 8.0 0.00 0.25 0.25 82 1008.4
20260506220033 69 213 1.0 6.0 0.00 0.25 0.25 82 1008.4
20260506215534 69 278 1.0 7.0 0.00 0.25 0.25 82 1008.4
20260506215033 69 215 2.0 7.0 0.00 0.25 0.25 82 1008.4
20260506214033 69 239 2.0 7.0 0.00 0.25 0.25 82 1008.4
20260506213034 69 222 2.0 9.0 0.00 0.25 0.25 82 1008.4
20260506212534 69 193 2.0 12.0 0.00 0.25 0.25 82 1008.4
20260506212034 69 305 3.0 12.0 0.00 0.25 0.25 82 1008.4
20260506211533 69 198 6.0 12.0 0.00 0.25 0.25 82 1008.4
20260506211034 69 191 3.0 12.0 0.00 0.25 0.25 82 1008.4
20260506210534 69 182 3.0 12.0 0.00 0.25 0.25 82 1008.2
20260506210034 69 219 5.0 12.0 0.00 0.25 0.25 82 1008.2
20260506205533 69 209 6.0 12.0 0.00 0.25 0.25 81 1008.1
20260506205033 69 197 6.0 10.0 0.00 0.25 0.25 81 1008.1
20260506204033 69 171 3.0 6.0 0.00 0.25 0.25 80 1008.0
20260506203533 69 234 2.0 10.0 0.00 0.25 0.25 82 1008.0
20260506203033 69 201 2.0 10.0 0.00 0.25 0.25 81 1008.0
20260506202533 69 244 1.0 8.0 0.00 0.25 0.25 82 1008.0
20260506202033 68 184 2.0 12.0 0.00 0.25 0.25 83 1008.1
20260506201533 68 185 3.0 16.0 0.00 0.25 0.25 83 1008.1
20260506201033 68 198 7.0 16.0 0.00 0.25 0.25 82 1008.1
20260506200533 68 213 4.0 14.0 0.00 0.25 0.25 83 1008.2
20260506200034 68 227 7.0 14.0 0.00 0.25 0.25 83 1008.3
20260506195533 68 227 6.0 12.0 0.00 0.25 0.25 82 1008.3
20260506195033 68 213 5.0 15.0 0.00 0.25 0.25 83 1008.2
20260506194533 68 226 9.0 15.0 0.00 0.25 0.25 82 1008.3
20260506194033 68 222 6.0 15.0 0.00 0.25 0.25 82 1008.3
20260506193534 68 153 4.0 12.0 0.00 0.25 0.25 83 1008.1
20260506193033 68 279 4.0 12.0 0.00 0.25 0.25 83 1008.2
20260506192533 67 154 4.0 12.0 0.00 0.25 0.25 84 1008.3
20260506192034 67 251 3.0 12.0 0.00 0.25 0.25 84 1008.3
20260506191533 67 239 5.0 12.0 0.00 0.25 0.25 84 1008.3
20260506191033 67 161 5.0 15.0 0.00 0.25 0.25 84 1008.4
20260506190533 67 236 6.0 15.0 0.00 0.25 0.25 84 1008.7
20260506190033 66 223 5.0 9.0 0.00 0.25 0.25 84 1008.8
20260506185533 66 220 3.0 12.0 0.00 0.25 0.25 84 1008.9
20260506184533 66 179 1.0 12.0 0.00 0.25 0.25 85 1009.0
20260506184033 66 208 2.0 12.0 0.00 0.25 0.25 85 1009.0
20260506183534 66 224 4.0 12.0 0.00 0.25 0.25 84 1009.1
20260506183034 66 220 5.0 12.0 0.00 0.25 0.25 84 1009.0
20260506182033 65 226 2.0 12.0 0.00 0.25 0.25 85 1009.0
20260506181533 65 224 7.0 12.0 0.00 0.25 0.25 85 1009.1
20260506181033 65 203 6.0 12.0 0.00 0.25 0.25 85 1009.1
20260506180034 65 199 2.0 12.0 0.00 0.25 0.25 85 1009.1
20260506175533 65 179 5.0 12.0 0.00 0.25 0.25 85 1009.1
20260506175033 65 207 4.0 12.0 0.00 0.25 0.25 85 1009.2
20260506174533 65 174 2.0 13.0 0.00 0.25 0.25 87 1009.2
20260506174034 65 208 4.0 13.0 0.00 0.25 0.25 87 1009.3
20260506173533 64 283 3.0 12.0 0.00 0.25 0.25 87 1009.3
20260506173033 64 184 5.0 12.0 0.00 0.25 0.25 88 1009.3
20260506172533 64 238 5.0 14.0 0.00 0.25 0.25 88 1009.3
20260506172034 64 200 6.0 15.0 0.00 0.25 0.25 88 1009.3
20260506171533 64 230 5.0 15.0 0.00 0.25 0.25 88 1009.4
20260506171033 64 238 6.0 14.0 0.00 0.25 0.25 88 1009.3
20260506170533 64 200 5.0 12.0 0.00 0.25 0.25 88 1009.4
20260506170033 63 246 4.0 17.0 0.00 0.25 0.25 89 1009.6
20260506165532 63 235 6.0 17.0 0.00 0.25 0.25 88 1009.6
20260506165033 63 225 3.0 16.0 0.00 0.25 0.25 90 1009.7
20260506164533 63 136 5.0 16.0 0.00 0.25 0.25 90 1009.6
20260506164033 63 219 2.0 13.0 0.00 0.25 0.25 91 1009.5
20260506163033 63 245 5.0 16.0 0.00 0.25 0.25 91 1009.6
20260506162533 62 189 3.0 16.0 0.00 0.25 0.25 92 1009.7
20260506161533 62 224 5.0 13.0 0.00 0.25 0.25 94 1009.9
20260506161032 62 244 6.0 13.0 0.00 0.25 0.25 94 1009.7
20260506160033 61 220 6.0 17.0 0.02 0.25 0.25 94 1009.7
20260506155532 61 215 6.0 17.0 0.03 0.25 0.25 94 1009.7
20260506155033 61 228 7.0 13.0 0.04 0.25 0.25 94 1009.9
20260506154533 61 241 6.0 12.0 0.05 0.25 0.25 95 1010.0
20260506154033 61 198 2.0 9.0 0.05 0.25 0.25 95 1009.9
20260506153533 61 201 3.0 12.0 0.05 0.25 0.25 95 1010.0
20260506153033 61 159 5.0 12.0 0.06 0.25 0.25 95 1010.2
20260506152033 61 195 6.0 13.0 0.06 0.25 0.25 95 1010.0
20260506151533 60 222 2.0 10.0 0.07 0.25 0.25 96 1009.8
20260506151033 60 184 5.0 10.0 0.07 0.25 0.25 95 1010.1
20260506150534 60 270 3.0 20.0 0.06 0.24 0.24 95 1010.2
20260506150033 60 209 5.0 20.0 0.06 0.23 0.23 94 1010.4
20260506145033 60 219 5.0 12.0 0.06 0.21 0.21 95 1010.5
20260506144532 60 182 3.0 8.0 0.05 0.20 0.20 95 1010.7
20260506144033 60 165 2.0 8.0 0.07 0.20 0.20 95 1010.7
20260506143533 60 169 3.0 10.0 0.08 0.20 0.20 94 1010.7
20260506142533 60 190 5.0 10.0 0.10 0.19 0.19 95 1010.7
20260506142033 60 160 1.0 7.0 0.11 0.19 0.19 95 1010.8
20260506141533 60 192 3.0 10.0 0.11 0.18 0.18 94 1010.7
20260506141034 60 196 3.0 12.0 0.12 0.18 0.18 94 1010.7